sat.trackr.live / text

‹ back to catalog

STARLINK-36299

NORAD 68534 · 2026-068AC

PAYLOAD ACTIVE UNKNOWN

§ Identity

Operator
Country
US
Launch date
2026-03-30
Launch site
AFETR
Launch vehicle
Mass (kg)
RCS (m²)

Purposes: comms

External: N2YO · Heavens-Above · Gunter

§ Orbital elements

Epoch: 2026-09-19T19:57:45.356544Z

Period
93.85 min
Inclination
53.1609°
Eccentricity
0.0000752
Mean motion
15.34404063 rev/d
Perigee alt
462.2 km
Apogee alt
463.2 km
Semi-major
6,840.8 km
B*
3.9321e-4
RAAN
302.9038°
Arg perigee
73.5115°
Mean anomaly
286.5971°
Rev number
2,673

§ Raw data

STARLINK-362991 68534U 26068AC  26262.83177496  .00012934  00000+0  39321-3 0  99902 68534  53.1609 302.9038 0000752  73.5115 286.5971 15.34404063 26739

JSON: /api/v1/satellites/68534 · /tle

For live sub-satellite position, see the globe view (requires WebGL).

§ Visibility from observer

Set your observer location to see the next 7 days of passes ≥ 10°. The values pass through the URL so the page stays shareable.

No JS? Fill the form by hand. The geolocation button needs JavaScript.